Spokane Fairchild, WA

1:54 PM PDT on April 26, 2017 (GMT -0700)
Fairchild Air Force Base

Weather History for KSKA - November, 2011

Change the Weather History Date:

Tuesday, November 29, 2011

  Actual Average Record
Temperature  
Mean Temperature 31 °F -  
Max Temperature 37 °F 35 °F 48 °F (1997)
Min Temperature 25 °F 26 °F -2 °F (2006)
Degree Days  
Heating Degree Days 34    
Moisture  
Dew Point 31 °F    
Average Humidity 100    
Maximum Humidity 100    
Minimum Humidity 100    
Precipitation  
Precipitation 0.00 in - - ()
Sea Level Pressure  
Sea Level Pressure 30.31 in    
Wind  
Wind Speed 3 mph (NE)    
Max Wind Speed 15 mph    
Max Gust Speed -    
Visibility 4 miles    
Events Fog , Rain , Snow    
Averages and records for this station are not official NWS values.
T = Trace of Precipitation, MM = Missing Value Source: NWS Daily Summary

Daily Weather History Graph

Daily Weather History Graph

Search for Another Location

Airport or City:

Trip Planner

Search our weather history database for the weather conditions in past years. The results will help you decide how hot, cold, wet, or windy it might be!

Date:

Astronomy

Nov. 29, 2011 Rise Set
Actual Time 7:15 AM PST 4:02 PM PST
Civil Twilight 6:40 AM PST 4:37 PM PST
Nautical Twilight 6:01 AM PST 5:15 PM PST
Astronomical Twilight 5:24 AM PST 5:52 PM PST
Moon 10:56 AM PST (11/29) 9:10 PM PST (11/29)
Length of Visible Light 9h 57m
Length of Day
8h 47m
Waxing Crescent, 25% of the Moon is Illuminated
Nov 29
Waxing Crescent
Dec 2
First Quarter
Dec 10
Full
Dec 17
Last Quarter
Dec 24
New

Hourly Weather History & Observations

Time (PST) Temp. Windchill Dew Point Humidity Pressure Visibility Wind Dir Wind Speed Gust Speed Precip Events Conditions
12:02 AM 26.6 °F - 26.6 °F 100% 30.43 in 0.2 mi Calm Calm - N/A Fog Light Freezing Fog
12:09 AM 26.6 °F 22.6 °F 26.6 °F 100% 30.42 in 0.2 mi East 3.5 mph - N/A Fog Light Freezing Fog
12:11 AM 26.6 °F 22.6 °F 26.6 °F 100% 30.42 in 0.2 mi East 3.5 mph - N/A Fog Light Freezing Fog
12:12 AM 26.6 °F 22.6 °F 26.6 °F 100% 30.42 in 0.2 mi East 3.5 mph - N/A Fog Light Freezing Fog
12:14 AM 26.6 °F 22.6 °F 26.6 °F 100% 30.42 in 0.5 mi ESE 3.5 mph - N/A Fog , Snow Light Freezing Fog
12:18 AM 26.6 °F - 26.6 °F 100% 30.42 in 0.2 mi Calm Calm - N/A Fog , Snow Light Freezing Fog
12:23 AM 26.6 °F - 26.6 °F 100% 30.42 in 0.2 mi Calm Calm - N/A Fog , Snow Light Freezing Fog
12:26 AM 26.6 °F - 26.6 °F 100% 30.42 in 0.2 mi Calm Calm - N/A Fog , Snow Light Freezing Fog
12:31 AM 26.6 °F - 26.6 °F 100% 30.42 in 0.2 mi Calm Calm - N/A Fog Light Freezing Fog
12:35 AM 26.6 °F - 26.6 °F 100% 30.41 in 0.2 mi Calm Calm - N/A Fog Light Freezing Fog
12:37 AM 26.6 °F - 26.6 °F 100% 30.41 in 0.2 mi Calm Calm - N/A Fog , Snow Light Freezing Fog
12:41 AM 26.6 °F - 26.6 °F 100% 30.42 in 0.5 mi Calm Calm - N/A Fog , Snow Light Freezing Fog
12:54 AM 26.6 °F - 26.6 °F 100% 30.41 in 0.2 mi Calm Calm - N/A Fog , Snow Light Freezing Fog
12:57 AM 26.6 °F 22.6 °F 26.6 °F 100% 30.42 in 0.5 mi North 3.5 mph - N/A Fog , Snow Light Freezing Fog
12:58 AM 26.6 °F 22.6 °F 26.6 °F 100% 30.42 in 0.5 mi North 3.5 mph - N/A Fog Light Freezing Fog
1:02 AM 26.6 °F 22.6 °F 26.6 °F 100% 30.42 in 0.8 mi North 3.5 mph - N/A   Clear
1:05 AM 26.6 °F 22.6 °F 26.6 °F 100% 30.42 in 1.0 mi North 3.5 mph - N/A   Clear
1:13 AM 26.6 °F 21.2 °F 26.6 °F 100% 30.42 in 1.5 mi North 4.6 mph - N/A   Scattered Clouds
1:23 AM 26.6 °F 21.2 °F 26.6 °F 100% 30.42 in 2.0 mi North 4.6 mph - N/A   Mostly Cloudy
1:26 AM 26.6 °F 21.2 °F 26.6 °F 100% 30.42 in 3.0 mi North 4.6 mph - N/A   Mostly Cloudy
1:27 AM 26.6 °F 21.2 °F 26.6 °F 100% 30.42 in 3.0 mi NNE 4.6 mph - N/A   Mostly Cloudy
1:37 AM 26.6 °F 21.2 °F 26.6 °F 100% 30.42 in 6.0 mi NNE 4.6 mph - N/A   Overcast
1:40 AM 26.6 °F 22.6 °F 26.6 °F 100% 30.42 in 6.0 mi NE 3.5 mph - N/A   Overcast
1:46 AM 26.6 °F 22.6 °F 26.6 °F 100% 30.42 in 2.0 mi NE 3.5 mph - N/A   Overcast
1:47 AM 26.6 °F 22.6 °F 26.6 °F 100% 30.41 in 1.5 mi NE 3.5 mph - N/A   Overcast
1:50 AM 26.6 °F 22.6 °F 26.6 °F 100% 30.42 in 0.8 mi NE 3.5 mph - N/A   Overcast
1:51 AM 26.6 °F 22.6 °F 26.6 °F 100% 30.42 in 0.8 mi ENE 3.5 mph - N/A   Overcast
1:55 AM 25.9 °F - 25.9 °F 100% 30.42 in 0.5 mi Calm Calm - 0.00 in Fog Light Freezing Fog
1:56 AM 26.6 °F - 26.6 °F 100% 30.42 in 0.2 mi Calm Calm - N/A Fog Light Freezing Fog
1:58 AM 26.6 °F 22.6 °F 26.6 °F 100% 30.42 in 0.2 mi ENE 3.5 mph - N/A Fog Light Freezing Fog
2:01 AM 26.6 °F 21.2 °F 26.6 °F 100% 30.41 in 0.2 mi ENE 4.6 mph - N/A Fog Light Freezing Fog
2:03 AM 26.6 °F 22.6 °F 26.6 °F 100% 30.41 in 0.2 mi ENE 3.5 mph - N/A Fog Light Freezing Fog
2:04 AM 26.6 °F 22.6 °F 26.6 °F 100% 30.42 in 0.2 mi ENE 3.5 mph - N/A Fog Light Freezing Fog
2:55 AM 28.0 °F - 28.0 °F 100% 30.40 in 0.2 mi Calm Calm - 0.00 in Fog , Snow Light Freezing Fog
3:08 AM 28.4 °F 24.6 °F 28.4 °F 100% 30.39 in 0.2 mi ENE 3.5 mph - N/A Fog Light Freezing Fog
3:10 AM 28.4 °F 23.3 °F 28.4 °F 100% 30.39 in 0.2 mi ENE 4.6 mph - N/A Fog Light Freezing Fog
3:13 AM 28.4 °F 23.3 °F 28.4 °F 100% 30.39 in 0.2 mi ENE 4.6 mph - N/A Fog Light Freezing Fog
3:16 AM 28.4 °F 23.3 °F 28.4 °F 100% 30.39 in 0.2 mi ENE 4.6 mph - N/A Fog Light Freezing Fog
3:19 AM 28.4 °F 23.3 °F 28.4 °F 100% 30.39 in 0.5 mi ENE 4.6 mph - N/A Fog Light Freezing Fog
3:30 AM 28.4 °F 24.6 °F 28.4 °F 100% 30.38 in 0.2 mi ENE 3.5 mph - N/A Fog Light Freezing Fog
3:33 AM 28.4 °F 24.6 °F 28.4 °F 100% 30.38 in 0.2 mi NE 3.5 mph - N/A Fog Light Freezing Fog
3:37 AM 28.4 °F 24.6 °F 28.4 °F 100% 30.38 in 0.2 mi NE 3.5 mph - N/A Fog Light Freezing Fog
3:39 AM 28.4 °F 23.3 °F 28.4 °F 100% 30.38 in 0.2 mi NE 4.6 mph - N/A Fog Light Freezing Fog
3:40 AM 28.4 °F 23.3 °F 28.4 °F 100% 30.38 in 0.2 mi NE 4.6 mph - N/A Fog Light Freezing Fog
3:54 AM 28.4 °F 24.6 °F 28.4 °F 100% 30.38 in 0.2 mi ENE 3.5 mph - N/A Fog Light Freezing Fog
4:03 AM 28.4 °F 24.6 °F 28.4 °F 100% 30.38 in 0.5 mi ENE 3.5 mph - N/A Fog Light Freezing Fog
4:06 AM 28.4 °F 24.6 °F 28.4 °F 100% 30.38 in 0.5 mi NE 3.5 mph - N/A Fog Light Freezing Fog
4:23 AM 28.4 °F 24.6 °F 28.4 °F 100% 30.38 in 0.5 mi NNE 3.5 mph - N/A Fog Light Freezing Fog
4:25 AM 28.4 °F 24.6 °F 28.4 °F 100% 30.39 in 0.8 mi NNE 3.5 mph - N/A   Mist
4:51 AM 28.4 °F 23.3 °F 28.4 °F 100% 30.39 in 0.8 mi North 4.6 mph - N/A   Mist
4:55 AM 28.4 °F 24.6 °F 28.4 °F 100% 30.39 in 0.8 mi North 3.5 mph - N/A   Mist
5:00 AM 28.4 °F 24.6 °F 28.4 °F 100% 30.39 in 0.8 mi North 3.5 mph - N/A   Clear
5:01 AM 28.4 °F 24.6 °F 28.4 °F 100% 30.39 in 1.0 mi North 3.5 mph - N/A   Clear
5:06 AM 28.4 °F 23.3 °F 28.4 °F 100% 30.40 in 1.5 mi North 4.6 mph - N/A   Clear
5:08 AM 28.4 °F 23.3 °F 28.4 °F 100% 30.40 in 2.0 mi North 4.6 mph - N/A   Clear
5:12 AM 28.4 °F 23.3 °F 28.4 °F 100% 30.40 in 3.0 mi North 4.6 mph - N/A   Clear
5:47 AM 28.4 °F 23.3 °F 28.4 °F 100% 30.38 in 2.5 mi NE 4.6 mph - N/A   Clear
5:53 AM 28.4 °F 23.3 °F 28.4 °F 100% 30.38 in 1.8 mi NE 4.6 mph - N/A   Clear
5:55 AM 28.4 °F 23.3 °F 28.4 °F 100% 30.38 in 1.8 mi NE 4.6 mph - N/A   Clear
5:56 AM 28.4 °F 23.3 °F 28.4 °F 100% 30.38 in 2.0 mi NE 4.6 mph - N/A   Clear
6:02 AM 28.4 °F 22.2 °F 28.4 °F 100% 30.38 in 3.0 mi NNE 5.8 mph - N/A   Clear
6:11 AM 28.4 °F 23.3 °F 28.4 °F 100% 30.38 in 2.5 mi NE 4.6 mph - N/A   Clear
6:13 AM 28.4 °F 23.3 °F 28.4 °F 100% 30.38 in 1.8 mi NE 4.6 mph - N/A   Clear
6:16 AM 28.4 °F 23.3 °F 28.4 °F 100% 30.38 in 1.2 mi NE 4.6 mph - N/A   Clear
6:20 AM 28.4 °F 23.3 °F 28.4 °F 100% 30.37 in 0.8 mi NE 4.6 mph - N/A   Clear
6:21 AM 28.4 °F 23.3 °F 28.4 °F 100% 30.37 in 0.8 mi NE 4.6 mph - N/A   Clear
6:22 AM 28.4 °F 23.3 °F 28.4 °F 100% 30.37 in 0.8 mi NE 4.6 mph - N/A   Clear
6:30 AM 28.4 °F 23.3 °F 28.4 °F 100% 30.38 in 0.8 mi NE 4.6 mph - N/A   Clear
6:32 AM 28.4 °F 23.3 °F 28.4 °F 100% 30.38 in 1.0 mi NE 4.6 mph - N/A   Clear
6:36 AM 28.4 °F 23.3 °F 28.4 °F 100% 30.38 in 1.5 mi ENE 4.6 mph - N/A   Clear
6:38 AM 28.4 °F 23.3 °F 28.4 °F 100% 30.38 in 2.0 mi ENE 4.6 mph - N/A   Clear
6:40 AM 28.4 °F 23.3 °F 28.4 °F 100% 30.38 in 3.0 mi ENE 4.6 mph - N/A   Clear
6:48 AM 28.4 °F 23.3 °F 28.4 °F 100% 30.38 in 5.0 mi East 4.6 mph - N/A   Clear
6:55 AM 29.3 °F 24.3 °F 29.3 °F 100% 30.37 in 3.0 mi East 4.6 mph - 0.00 in   Clear
7:00 AM 30.2 °F 26.7 °F 30.2 °F 100% 30.37 in 2.5 mi East 3.5 mph - N/A   Clear
7:06 AM 30.2 °F 26.7 °F 30.2 °F 100% 30.37 in 1.8 mi East 3.5 mph - N/A   Clear
7:08 AM 30.2 °F 26.7 °F 30.2 °F 100% 30.37 in 1.2 mi East 3.5 mph - N/A   Partly Cloudy
7:10 AM 30.2 °F 26.7 °F 30.2 °F 100% 30.37 in 0.8 mi East 3.5 mph - N/A   Partly Cloudy
7:12 AM 30.2 °F 26.7 °F 30.2 °F 100% 30.37 in 0.5 mi East 3.5 mph - N/A Fog Light Freezing Fog
7:15 AM 30.2 °F 26.7 °F 30.2 °F 100% 30.38 in 0.5 mi East 3.5 mph - N/A Fog Light Freezing Fog
7:16 AM 30.2 °F - 30.2 °F 100% 30.38 in 0.2 mi Calm Calm - N/A Fog Light Freezing Fog
7:26 AM 28.4 °F - 28.4 °F 100% 30.38 in 0.2 mi Calm Calm - N/A Fog Light Freezing Fog
7:38 AM 28.4 °F - 28.4 °F 100% 30.38 in 0.5 mi Calm Calm - N/A Fog Light Freezing Fog
7:39 AM 28.4 °F - 28.4 °F 100% 30.38 in 0.5 mi Calm Calm - N/A Fog Light Freezing Fog
7:44 AM 30.2 °F - 30.2 °F 100% 30.38 in 0.5 mi Calm Calm - N/A Fog Light Freezing Fog
7:53 AM 30.2 °F - 30.2 °F 100% 30.39 in 0.5 mi Calm Calm - N/A Fog Light Freezing Fog
7:55 AM 29.5 °F - 29.5 °F 100% 30.38 in 0.5 mi Calm Calm - 0.00 in Fog Light Freezing Fog
7:58 AM 30.2 °F - 30.2 °F 100% 30.38 in 0.5 mi Calm Calm - N/A Fog Light Freezing Fog
8:02 AM 30.2 °F - 30.2 °F 100% 30.38 in 0.8 mi Calm Calm - N/A   Scattered Clouds
8:07 AM 30.2 °F 26.7 °F 30.2 °F 100% 30.38 in 1.0 mi East 3.5 mph - N/A   Scattered Clouds
8:33 AM 30.2 °F - 30.2 °F 100% 30.36 in 1.5 mi Calm Calm - N/A   Scattered Clouds
8:39 AM 30.2 °F 26.7 °F 30.2 °F 100% 30.35 in 2.0 mi East 3.5 mph - N/A   Scattered Clouds
8:55 AM 30.7 °F 27.3 °F 30.7 °F 100% 30.35 in 3.0 mi ENE 3.5 mph - N/A   Mostly Cloudy
9:27 AM 32.0 °F 28.7 °F 32.0 °F 100% 30.34 in 5.0 mi NE 3.5 mph - N/A   Scattered Clouds
9:40 AM 32.0 °F 27.5 °F 32.0 °F 100% 30.35 in 7.0 mi East 4.6 mph - N/A   Mostly Cloudy
9:55 AM 31.8 °F - 31.8 °F 100% 30.35 in 9.0 mi Calm Calm - 0.00 in   Overcast
10:00 AM 32.0 °F - 32.0 °F 100% 30.34 in 9.0 mi Calm Calm - N/A   Overcast
10:13 AM 32.0 °F - 32.0 °F 100% 30.33 in 10.0 mi Calm Calm - N/A   Overcast
10:55 AM 33.3 °F - 33.3 °F 100% 30.32 in 10.0 mi Calm Calm - N/A   Overcast
11:25 AM 33.8 °F 30.8 °F 33.8 °F 100% 30.29 in 10.0 mi East 3.5 mph - N/A   Mostly Cloudy
11:50 AM 35.6 °F 32.8 °F 35.6 °F 100% 30.28 in 10.0 mi NNE 3.5 mph - N/A   Overcast
11:55 AM 35.2 °F 32.4 °F 35.2 °F 100% 30.29 in 10.0 mi NNE 3.5 mph - 0.00 in   Overcast
11:59 AM 35.6 °F 31.7 °F 35.6 °F 100% 30.30 in 10.0 mi North 4.6 mph - N/A   Overcast
12:01 PM 35.6 °F 32.8 °F 35.6 °F 100% 30.29 in 10.0 mi NNE 3.5 mph - N/A   Overcast
12:06 PM 35.6 °F 32.8 °F 35.6 °F 100% 30.28 in 10.0 mi NNE 3.5 mph - N/A   Overcast
12:16 PM 35.6 °F - 35.6 °F 100% 30.28 in 10.0 mi Calm Calm - N/A   Overcast
12:55 PM 35.6 °F 32.8 °F 35.6 °F 100% 30.25 in 10.0 mi East 3.5 mph - 0.00 in   Overcast
1:55 PM 36.5 °F 31.8 °F 36.5 °F 100% 30.20 in 10.0 mi East 5.8 mph - N/A   Overcast
2:08 PM 37.4 °F 33.8 °F 37.4 °F 100% 30.20 in 10.0 mi East 4.6 mph - N/A   Overcast
2:10 PM 37.4 °F 33.8 °F 37.4 °F 100% 30.20 in 10.0 mi East 4.6 mph - N/A   Overcast
2:18 PM 37.4 °F 33.8 °F 37.4 °F 100% 30.19 in 10.0 mi East 4.6 mph - N/A   Overcast
2:32 PM 37.4 °F 32.8 °F 37.4 °F 100% 30.18 in 10.0 mi East 5.8 mph - N/A   Overcast
2:55 PM 37.2 °F 34.7 °F 37.2 °F 100% 30.19 in 10.0 mi ESE 3.5 mph - 0.00 in   Overcast
3:02 PM 37.4 °F - 37.4 °F 100% 30.19 in 10.0 mi Calm Calm - N/A   Overcast
3:55 PM 37.6 °F - 37.6 °F 100% 30.18 in 10.0 mi Calm Calm - N/A   Overcast
4:18 PM 37.4 °F - 37.4 °F 100% 30.18 in 9.0 mi Calm Calm - N/A   Overcast
4:33 PM 35.6 °F 31.7 °F 35.6 °F 100% 30.16 in 8.0 mi ENE 4.6 mph - N/A   Overcast
4:36 PM 35.6 °F 31.7 °F 35.6 °F 100% 30.15 in 8.0 mi East 4.6 mph - N/A   Overcast
4:55 PM 34.5 °F 31.6 °F 34.5 °F 100% 30.13 in 7.0 mi ENE 3.5 mph - 0.00 in   Overcast
5:31 PM 33.8 °F 30.8 °F 33.8 °F 100% 30.15 in 7.0 mi East 3.5 mph - N/A   Overcast
5:55 PM 35.1 °F - 35.1 °F 100% 30.14 in 8.0 mi Calm Calm - N/A   Overcast
6:50 PM 35.6 °F 31.7 °F 35.6 °F 100% 30.13 in 8.0 mi WSW 4.6 mph - N/A   Overcast
6:55 PM 34.9 °F 30.8 °F 34.9 °F 100% 30.13 in 8.0 mi West 4.6 mph - 0.00 in   Overcast
7:00 PM 33.8 °F 29.6 °F 33.8 °F 100% 30.13 in 8.0 mi West 4.6 mph - N/A   Overcast
7:15 PM 33.8 °F - 33.8 °F 100% 30.12 in 9.0 mi Calm Calm - N/A   Overcast
7:26 PM 33.8 °F - 33.8 °F 100% 30.12 in 9.0 mi Calm Calm - N/A   Overcast
7:50 PM 35.6 °F - 35.6 °F 100% 30.12 in 9.0 mi Calm Calm - N/A   Overcast
7:54 PM 35.6 °F - 35.6 °F 100% 30.12 in 9.0 mi Calm Calm - N/A   Overcast
7:59 PM 35.6 °F 32.8 °F 35.6 °F 100% 30.12 in 9.0 mi South 3.5 mph - N/A   Overcast
8:05 PM 35.6 °F 32.8 °F 35.6 °F 100% 30.12 in 10.0 mi South 3.5 mph - N/A   Overcast
8:17 PM 35.6 °F 32.8 °F 35.6 °F 100% 30.11 in 10.0 mi SSE 3.5 mph - N/A Rain Light Rain
8:36 PM 35.6 °F 30.7 °F 35.6 °F 100% 30.11 in 10.0 mi SSW 5.8 mph - N/A   Overcast
8:50 PM 35.6 °F 29.2 °F 35.6 °F 100% 30.12 in 10.0 mi SW 8.1 mph - N/A Rain Light Rain
8:55 PM 35.8 °F 29.4 °F 35.8 °F 100% 30.12 in 10.0 mi SW 8.1 mph - 0.00 in Rain Light Rain
9:10 PM 35.6 °F 29.2 °F 35.6 °F 100% 30.12 in 10.0 mi SW 8.1 mph - N/A   Overcast
9:14 PM 35.6 °F 28.6 °F 35.6 °F 100% 30.12 in 10.0 mi SW 9.2 mph - N/A   Overcast
9:19 PM 35.6 °F 28.6 °F 35.6 °F 100% 30.13 in 10.0 mi SW 9.2 mph - N/A   Overcast
9:28 PM 35.6 °F 28.0 °F 35.6 °F 100% 30.14 in 10.0 mi WSW 10.4 mph - N/A   Overcast
9:30 PM 35.6 °F 28.0 °F 35.6 °F 100% 30.14 in 10.0 mi WSW 10.4 mph - N/A   Overcast
9:32 PM 35.6 °F 28.0 °F 35.6 °F 100% 30.14 in 10.0 mi WSW 10.4 mph - N/A   Overcast
9:37 PM 35.6 °F 28.0 °F 35.6 °F 100% 30.14 in 10.0 mi WSW 10.4 mph - N/A   Overcast
9:45 PM 35.6 °F 27.5 °F 35.6 °F 100% 30.15 in 10.0 mi WSW 11.5 mph - N/A   Overcast
9:55 PM 35.1 °F 26.9 °F 35.1 °F 100% 30.15 in 10.0 mi WSW 11.5 mph - 0.00 in   Overcast
10:01 PM 35.6 °F 26.2 °F 35.6 °F 100% 30.15 in 10.0 mi WSW 15.0 mph - N/A   Overcast
10:09 PM 33.8 °F 24.8 °F 33.8 °F 100% 30.15 in 10.0 mi WSW 12.7 mph - N/A   Overcast
10:11 PM 33.8 °F 26.4 °F 33.8 °F 100% 30.15 in 10.0 mi SW 9.2 mph - N/A   Overcast
10:24 PM 33.8 °F 27.0 °F 33.8 °F 100% 30.15 in 10.0 mi SW 8.1 mph - N/A   Overcast
10:38 PM 33.8 °F 25.8 °F 33.8 °F 100% 30.15 in 9.0 mi SW 10.4 mph - N/A   Overcast
10:55 PM 33.6 °F 25.6 °F 33.6 °F 100% 30.15 in 7.0 mi SW 10.4 mph - 0.00 in   Overcast
10:56 PM 33.8 °F 25.3 °F 33.8 °F 100% 30.15 in 7.0 mi SW 11.5 mph - N/A   Overcast
11:55 PM 32.7 °F 26.4 °F 32.7 °F 100% 30.16 in 7.0 mi WSW 6.9 mph - N/A   Overcast
11:58 PM 32.0 °F 24.8 °F 32.0 °F 100% 30.17 in 6.0 mi WSW 8.1 mph - N/A   Overcast